CW7054 Weather Reports


Display with metric or nautical units.
time (UTC)temp
F
wind
direction
speed
MPH
gust
MPH
rain 1hr
in
rain 24hr
in
rain mn
in
humidity
%
barometer
mb
20260904154552 79 78 1.0 7.0 0.00 0.00 0.00 81 1010.1
20260904153055 78 76 0.0 6.0 0.00 0.00 0.00 82 1010.1
20260904151549 78 133 0.0 4.0 0.00 0.00 0.00 82 1010.1
20260904150056 78 39 0.0 8.0 0.00 0.00 0.00 84 1010.0
20260904144557 77 348 0.0 4.0 0.00 0.00 0.00 85 1009.9
20260904143050 76 52 0.0 6.0 0.00 0.00 0.00 90 1010.0
20260904141540 76 70 0.0 3.0 0.00 0.00 0.00 93 1009.9
20260904140050 75 64 0.0 5.0 0.00 0.00 0.00 95 1010.0
20260904134536 74 80 0.0 6.0 0.00 0.00 0.00 96 1009.8
20260904133033 74 336 0.0 4.0 0.00 0.00 0.00 96 1009.8
20260904131528 74 39 0.0 4.0 0.00 0.00 0.00 96 1009.9
20260904130025 73 28 0.0 7.0 0.00 0.00 0.00 96 1009.9
20260904124524 73 27 1.0 5.0 0.00 0.00 0.00 96 1009.9
20260904123022 73 35 0.0 3.0 0.00 0.00 0.00 96 1009.8
20260904121523 72 292 0.0 2.0 0.00 0.00 0.00 96 1009.8
20260904120024 72 225 0.0 2.0 0.00 0.00 0.00 96 1009.9
20260904114525 72 227 0.0 0.0 0.00 0.00 0.00 96 1009.9
20260904113029 71 227 0.0 0.0 0.00 0.00 0.00 96 1009.8
20260904111522 71 227 0.0 0.0 0.00 0.00 0.00 96 1009.7
20260904110020 71 227 0.0 1.0 0.00 0.00 0.00 96 1009.6
20260904104519 71 267 0.0 0.0 0.00 0.00 0.00 95 1009.2
20260904103018 71 269 0.0 0.0 0.00 0.00 0.00 95 1008.9
20260904101518 71 269 0.0 0.0 0.00 0.00 0.00 95 1008.8
20260904100017 71 269 0.0 0.0 0.00 0.00 0.00 95 1008.9
20260904094531 71 269 0.0 0.0 0.00 0.00 0.00 95 1008.9
20260904093016 71 269 0.0 1.0 0.00 0.00 0.00 95 1009.3
20260904091516 71 271 0.0 2.0 0.00 0.00 0.00 95 1009.4
20260904090015 71 271 0.0 7.0 0.00 0.00 0.00 95 1009.8
20260904084514 71 157 0.0 3.0 0.00 0.00 0.00 94 1009.2
20260904083013 71 81 0.0 1.0 0.00 0.00 0.00 95 1008.8
20260904081512 71 81 0.0 2.0 0.00 0.00 0.00 94 1008.9
20260904080010 71 81 0.0 1.0 0.00 0.00 0.00 94 1009.1
20260904074508 72 81 0.0 2.0 0.00 0.00 0.00 94 1009.3
20260904073007 72 188 0.0 2.0 0.00 0.00 0.00 94 1010.1
20260904071506 72 44 1.0 4.0 0.00 0.00 0.00 94 1010.3
20260904070004 73 54 1.0 7.0 0.00 0.00 0.00 95 1009.3
20260904064501 73 173 0.0 1.0 0.00 0.00 0.00 95 1009.6
20260904063126 73 173 0.0 0.0 0.00 0.00 0.00 95 1009.6
20260904061559 73 173 0.0 0.0 0.00 0.00 0.00 95 1009.6
20260904060110 73 173 0.0 3.0 0.00 0.00 0.00 95 1009.9
20260904054556 73 173 0.0 4.0 0.00 0.00 0.00 95 1010.0
20260904053055 73 174 0.0 0.0 0.00 0.00 0.00 95 1010.1
20260904051552 73 174 0.0 2.0 0.00 0.00 0.00 95 1010.5
20260904050056 73 174 0.0 1.0 0.00 0.00 0.00 95 1010.7
20260904044550 73 174 0.0 0.0 0.00 0.00 0.00 94 1010.7
20260904043047 74 174 0.0 0.0 0.00 0.00 0.00 94 1010.7
20260904041545 74 174 0.0 0.0 0.00 0.00 0.00 94 1011.0
20260904040044 74 174 0.0 0.0 0.00 0.00 0.00 94 1010.9
20260904034544 74 174 0.0 0.0 0.00 0.00 0.00 94 1011.2
20260904033038 74 174 0.0 1.0 0.00 0.00 0.00 94 1011.1
20260904031537 74 174 0.0 4.0 0.00 0.00 0.00 94 1011.4
20260904030038 74 174 0.0 3.0 0.00 0.00 0.00 94 1011.5
20260904024536 74 174 0.0 0.0 0.00 0.00 0.00 94 1011.5
20260904023039 74 174 0.0 1.0 0.00 0.00 0.00 94 1011.4
20260904021547 74 174 0.0 1.0 0.00 0.00 0.00 93 1011.8
20260904020035 74 175 0.0 0.0 0.00 0.00 0.00 93 1011.9
20260904014533 74 175 0.0 4.0 0.00 0.00 0.00 93 1012.2
20260904013047 74 175 0.0 1.0 0.00 0.00 0.00 92 1012.3
20260904011532 74 176 0.0 1.0 0.00 0.00 0.00 92 1012.1
20260904010034 74 176 0.0 0.0 0.00 0.00 0.00 92 1012.1
20260904004532 74 176 0.0 1.0 0.00 0.00 0.00 91 1012.1
20260904003032 75 176 0.0 0.0 0.00 0.00 0.00 91 1012.3
20260904001550 75 176 0.0 0.0 0.00 0.00 0.00 90 1011.7
20260904000031 75 176 0.0 0.0 0.00 0.00 0.00 90 1011.4
20260903234530 75 176 0.0 1.0 0.00 0.00 0.00 90 1011.4
20260903233039 75 177 0.0 2.0 0.00 0.00 0.00 89 1011.6
20260903231528 76 178 0.0 4.0 0.00 0.00 0.00 88 1011.5
20260903230033 76 235 0.0 3.0 0.00 0.00 0.00 88 1011.8
20260903224531 76 234 0.0 2.0 0.00 0.00 0.00 88 1011.6
20260903223027 76 159 0.0 2.0 0.00 0.00 0.00 88 1011.7
20260903221528 76 159 0.0 2.0 0.00 0.00 0.00 87 1011.7
20260903220027 77 157 0.0 5.0 0.00 0.00 0.00 87 1011.7
20260903214534 77 175 1.0 4.0 0.00 0.00 0.00 86 1011.7
20260903213036 78 181 0.0 3.0 0.00 0.00 0.00 85 1011.5
20260903211525 78 177 0.0 1.0 0.00 0.00 0.00 86 1011.6
20260903210028 78 167 0.0 2.0 0.00 0.00 0.00 86 1011.4
20260903204524 78 165 0.0 6.0 0.00 0.00 0.00 86 1011.5
20260903203023 78 164 1.0 6.0 0.00 0.00 0.00 85 1011.8
20260903201522 78 170 0.0 4.0 0.00 0.00 0.00 85 1011.7
20260903200022 79 171 0.0 6.0 0.00 0.00 0.00 84 1011.7
20260903194521 79 170 0.0 1.0 0.00 0.00 0.00 85 1011.7
20260903193020 79 170 0.0 3.0 0.00 0.00 0.00 84 1011.9
20260903191528 79 166 1.0 5.0 0.00 0.00 0.00 86 1012.0
20260903190016 78 189 0.0 2.0 0.00 0.00 0.00 87 1012.0
20260903184513 77 211 1.0 6.0 0.00 0.00 0.00 87 1012.2
20260903183021 77 250 1.0 7.0 0.00 0.00 0.00 87 1012.3
20260903181511 77 172 0.0 9.0 0.00 0.00 0.00 86 1012.3
20260903180023 77 178 3.0 8.0 0.00 0.00 0.00 87 1012.4
20260903174509 77 167 1.0 5.0 0.00 0.01 0.00 87 1012.5
20260903173010 77 169 1.0 7.0 0.00 0.01 0.00 87 1012.5
20260903171508 77 181 1.0 6.0 0.00 0.01 0.00 87 1012.4
20260903170005 77 183 1.0 8.0 0.00 0.01 0.00 88 1012.6
20260903164503 76 158 0.0 8.0 0.00 0.02 0.00 88 1012.9
20260903163002 76 163 0.0 5.0 0.00 0.02 0.00 89 1013.0
20260903161558 76 192 1.0 8.0 0.00 0.02 0.00 88 1013.1
20260903160054 76 183 0.0 7.0 0.00 0.02 0.00 88 1013.3